"Pseudo-MPEC" for P110LJc

Created 2020 May 26 11:07:21 UT using Find_Orb

Click here for an explanation of pseudo-MPECs

 
 Astrometry: 
     P110LJc  C2020 05 21)]!3_^rQmiZ)LF;#m^V]V!@E*o=7^Hu954wa?jPSMiG'6*7k%]OuF51
     P110LJc  C2020 05 21,l:C*rC+,tl%eCYlyY5YIeT:j7jeC6AstrometryYredacted;@uF51
     P110LJc  C2020 05 21O9rZymM%XJ^$#q:7QV`dclickU`here!ELx5_s052)IevvD.\2XSF51
     P110LJc KC2020 05 22o+]UGfor!d.Wc4UyMNcb:l2ZBb$P=a=unCjyZy!6dcmMQL$+jgE\H21
     P110LJc KC2020 05 22SYYo^c2y-m$wG8wN;euhxot)_a(unbTdvyexplanationx*FV[GIH21
     P110LJc  C2020 05 23.31711 16 33 53.20 -07 18 47.6    ~5N8M 22.1 GVNEOCPV06
     P110LJc  C2020 05 23.32028 16 33 52.97 -07 18 44.2    ~5N8M 21.3 GVNEOCPV06
     P110LJc  C2020 05 23.32346 16 33 52.73 -07 18 40.9    ~5N8M 21.4 GVNEOCPV06
     P110LJc  C2020 05 23.32663 16 33 52.49 -07 18 37.4    ~5N8M 21.6 GVNEOCPV06

Station data:
(F51) Pan-STARRS 1, Haleakala  (N20.707235 W156.255910)  US/Hawaii.
   Observers N. Primak, A. Schultz, S. Watters, J. Thiel, T. Goggia. Measurer
   PS1 Science Consortium. 1.8-m Ritchey-Chrétien + CCD.
(H21) Astronomical Research Observatory, Westfield  (N39.483057 W87.968270)
   US/Illinois. 0.76-m f/3.0 astrograph + CCD.
(V06) Catalina Sky Survey-Kuiper  (N32.416847 W110.732550)  US/Arizona.
   Observers T. A. Pruyne, B. M. Africano, E. J. Christensen, G. A. Farneth,
   D. C. Fuls, A. R. Gibbs, A. D. Grauer, H. Gröller, J. A. Johnson, R. A.
   Kowalski, S. M. Larson, G. J. Leonard, D. Rankin, R. L. Seaman, F. C.
   Shelly. 1.55-m reflector + CCD.

Orbital elements:  P110LJc
   Perihelion 2019 Apr 1.308745 +/- 797 TT =  7:24:35 (JD 2458574.808745)
Epoch 2020 May 23.0 TT = JDT 2458992.5   Earth MOID: 0.7349   AutoNEOCP
M 169.79089173 +/- 320              (J2000 ecliptic)
n   0.40649855 +/- 0.0179           Peri.  211.26583 +/- 25
a   1.80480400 +/- 0.0528           Node   223.83729 +/- 1.8
e   0.0493279 +/- 0.015             Incl.   18.37418 +/- 2.0
P   2.42/885.60d           H 20.3   G  0.15   U 10.2  
q 1.71577679 +/- 0.0269    Q 1.89383120 +/- 0.0787
From 9 observations 2020 May 21-23 (45.1 hr); mean residual 0".10
Residuals in arcseconds: 
200521 F51  .21+  .01+    200522 H21  .13-  .01+    200523 V06  .07+  .01+    
200521 F51  .08+  .10-    200522 H21  .08+  .07-    200523 V06  .02+  .05-    
200521 F51  .27-  .13+    200523 V06  .03-  .04-    200523 V06  .03-  .11+    

Ephemerides (geocentric):
Date (UTC) HH   RA              Dec         delta   r     elong  mag " sig PA
---- -- -- --  -------------   -----------  ------ ------ -----  --- ---- ---
2020 05 26 11  16 30 08.169   -06 24 24.52  .89665 1.8929 164.7 22.0 7.48  23
2020 05 26 12  16 30 05.167   -06 23 42.19  .89666 1.8929 164.7 22.0 7.65  23
2020 05 26 13  16 30 02.166   -06 22 59.89  .89667 1.8929 164.7 22.0 7.82  23
2020 05 26 14  16 29 59.164   -06 22 17.62  .89667 1.8929 164.7 22.0 8.00  23
2020 05 26 15  16 29 56.163   -06 21 35.36  .89668 1.8929 164.7 22.0 8.18  23
2020 05 26 16  16 29 53.161   -06 20 53.14  .89669 1.8929 164.7 22.0 8.36  23
2020 05 26 17  16 29 50.158   -06 20 10.94  .89670 1.8929 164.7 22.0 8.54  22
2020 05 26 18  16 29 47.156   -06 19 28.76  .89671 1.8929 164.7 22.0 8.72  22
2020 05 26 19  16 29 44.154   -06 18 46.61  .89672 1.8929 164.7 22.0 8.91  22
2020 05 26 20  16 29 41.151   -06 18 04.48  .89673 1.8929 164.6 22.0 9.10  22
2020 05 26 21  16 29 38.148   -06 17 22.38  .89674 1.8929 164.6 22.0 9.29  22
2020 05 26 22  16 29 35.145   -06 16 40.31  .89675 1.8929 164.6 22.0 9.48  22
2020 05 26 23  16 29 32.142   -06 15 58.26  .89676 1.8929 164.6 22.0 9.67  22
2020 05 27 00  16 29 29.139   -06 15 16.23  .89678 1.8929 164.6 22.0 9.87  21
2020 05 27 01  16 29 26.136   -06 14 34.23  .89679 1.8929 164.6 22.0 10.1  21
2020 05 27 02  16 29 23.132   -06 13 52.26  .89680 1.8929 164.6 22.0 10.3  21
2020 05 27 03  16 29 20.129   -06 13 10.31  .89682 1.8929 164.6 22.0 10.5  21
2020 05 27 04  16 29 17.125   -06 12 28.39  .89683 1.8929 164.6 22.0 10.7  21
2020 05 27 05  16 29 14.122   -06 11 46.50  .89684 1.8929 164.6 22.0 10.9  21
2020 05 27 06  16 29 11.118   -06 11 04.63  .89686 1.8929 164.6 22.0 11.1  21
2020 05 27 07  16 29 08.114   -06 10 22.78  .89687 1.8929 164.6 22.0 11.3  20
2020 05 27 08  16 29 05.110   -06 09 40.97  .89689 1.8930 164.6 22.0 11.5  20
2020 05 27 09  16 29 02.107   -06 08 59.17  .89690 1.8930 164.5 22.0 11.7  20
2020 05 27 10  16 28 59.103   -06 08 17.41  .89692 1.8930 164.5 22.0 11.9  20
2020 05 27 11  16 28 56.099   -06 07 35.67  .89694 1.8930 164.5 22.0 12.1  20
2020 05 27 12  16 28 53.095   -06 06 53.96  .89695 1.8930 164.5 22.0 12.3  20
2020 05 27 13  16 28 50.091   -06 06 12.27  .89697 1.8930 164.5 22.0 12.6  20
2020 05 27 14  16 28 47.087   -06 05 30.61  .89699 1.8930 164.5 22.0 12.8  20
2020 05 27 15  16 28 44.083   -06 04 48.98  .89701 1.8930 164.5 22.0 13.0  19
2020 05 27 16  16 28 41.079   -06 04 07.37  .89703 1.8930 164.5 22.0 13.2  19
2020 05 27 17  16 28 38.075   -06 03 25.79  .89705 1.8930 164.5 22.0 13.5  19
2020 05 27 18  16 28 35.072   -06 02 44.24  .89707 1.8930 164.5 22.0 13.7  19
2020 05 27 19  16 28 32.068   -06 02 02.72  .89709 1.8930 164.5 22.0 13.9  19
2020 05 27 20  16 28 29.064   -06 01 21.22  .89711 1.8930 164.4 22.0 14.2  19
2020 05 27 21  16 28 26.060   -06 00 39.74  .89713 1.8930 164.4 22.0 14.4  19
2020 05 27 22  16 28 23.057   -05 59 58.30  .89715 1.8930 164.4 22.0 14.6  19
2020 05 27 23  16 28 20.053   -05 59 16.88  .89717 1.8930 164.4 22.0 14.9  18
2020 05 28 00  16 28 17.050   -05 58 35.49  .89719 1.8930 164.4 22.0 15.1  18
2020 05 28 01  16 28 14.047   -05 57 54.13  .89722 1.8930 164.4 22.0 15.3  18
2020 05 28 02  16 28 11.043   -05 57 12.79  .89724 1.8930 164.4 22.0 15.6  18
2020 05 28 03  16 28 08.040   -05 56 31.48  .89726 1.8930 164.4 22.0 15.8  18
2020 05 28 04  16 28 05.037   -05 55 50.20  .89729 1.8930 164.4 22.0 16.1  18
2020 05 28 05  16 28 02.035   -05 55 08.95  .89731 1.8930 164.3 22.0 16.3  18
2020 05 28 06  16 27 59.032   -05 54 27.72  .89734 1.8930 164.3 22.0 16.6  18
2020 05 28 07  16 27 56.029   -05 53 46.52  .89736 1.8930 164.3 22.0 16.8  18
2020 05 28 08  16 27 53.027   -05 53 05.35  .89739 1.8930 164.3 22.0 17.1  17
2020 05 28 09  16 27 50.025   -05 52 24.21  .89741 1.8930 164.3 22.0 17.4  17
2020 05 28 10  16 27 47.023   -05 51 43.09  .89744 1.8930 164.3 22.0 17.6  17